This demonstration page uses our WeatherBlox Daily Observations layout. Learn more.

Left ArrowRight Arrow

Hourly Observations for February 23, 2017

Temp ( °F °C ) Dew Point ( °F °C ) Humidity (%) Winds ( mph kmh ) Pressure ( in mb ) Visibility ( mi km ) Precip ( " mm )
12:53 am 00:53 Clear 57 13.9 27 -2.8 32 32 SSE 5 7 29.65 1004 10 16 0.00 0.00
1:53 am 01:53 Clear 53 11.7 28 -2.2 38 38 Calm 29.63 1003 10 16 0.00 0.00
2:53 am 02:53 Clear 47 8.3 28 -2.2 48 48 WNW 7 11 29.62 1003 10 16 0.00 0.00
3:53 am 03:53 Clear 51 10.6 27 -2.8 39 39 WNW 5 7 29.60 1002 10 16 0.00 0.00
4:53 am 04:53 Clear 47 8.3 28 -2.2 48 48 SE 5 7 29.60 1003 10 16 0.00 0.00
5:53 am 05:53 Clear 45 7.2 28 -2.2 52 52 Calm 29.61 1003 10 16 0.00 0.00
6:53 am 06:53 Clear 45 7.2 27 -2.8 49 49 SSW 7 11 29.62 1003 10 16 0.00 0.00
7:53 am 07:53 Hazy 52 11.1 26 -3.3 37 37 SW 9 15 29.61 1003 6 10 0.00 0.00
8:53 am 08:53 Sunny 66 18.9 25 -3.9 21 21 WSW 12 19 29.62 1003 10 16 0.00 0.00
9:53 am 09:53 Sunny 73 22.8 24 -4.4 16 16 WSW 20 31 29.53 1000 10 16 0.00 0.00
10:53 am 10:53 Sunny 79 26.1 25 -3.9 14 14 SW 20 31 29.50 999 10 16 0.00 0.00
11:53 am 11:53 Sunny 83 28.3 25 -3.9 12 12 W 29 46 29.54 1000 10 16 0.00 0.00
12:53 pm 12:53 undefined 83 28.3 25 -3.9 12 12 undefined N/A 29.52 1000 N/A 0.00 0.00
1:53 pm 13:53 undefined N/A N/A N/A undefined N/A N/A N/A 0.00 0.00
2:53 pm 14:53 undefined 84 28.9 18 -7.8 8 8 undefined N/A 29.47 998 N/A 0.00 0.00
3:53 pm 15:53 Sunny 84 28.9 22 -5.6 10 10 W 30 48 29.47 998 10 16 0.00 0.00
4:53 pm 16:53 Mostly Sunny 82 27.8 21 -6.1 10 10 WNW 26 43 29.48 998 10 16 0.00 0.00
5:53 pm 17:53 Cloudy 79 26.1 14 -10 8 8 W 28 44 29.50 999 9 14 0.00 0.00
6:53 pm 18:53 undefined 76 24.4 11 -11.7 8 8 undefined N/A 29.53 1000 N/A 0.00 0.00
7:53 pm 19:53 Clear 73 22.8 10 -12.2 9 9 W 23 37 29.55 1001 10 16 0.00 0.00
8:53 pm 20:53 Cloudy 70 21.1 11 -11.7 10 10 WNW 22 35 29.56 1001 10 16 0.00 0.00
9:53 pm 21:53 Clear 67 19.4 10 -12.2 11 11 W 14 22 29.58 1002 10 16 0.00 0.00
10:53 pm 22:53 undefined N/A N/A N/A undefined N/A N/A N/A 0.00 0.00
11:53 pm 23:53 undefined N/A N/A N/A undefined N/A N/A N/A 0.00 0.00

Powered by AerisWeather